Theta_e
305 305 305 306 306 306 306 306 306 306 306 305 305 305 304 305 305 305 305 306 306 306 306 306 306 306 306 306 307 307 307 309 309 308 307 304 303 304 305 305 306 307 308 309 311 313 312 311 311 309 310 311 312 312 311 310 310 314 317 317 315 314 312 310 308 307 308 309 307 307 306 307 306 304 304 302 302 302 302 302 303 303 303 302 300 298 298 298
305 305 305 305 306 306 306 305 305 305 305 305 305 305 305 305 305 305 306 305 306 306 306 307 306 307 306 306 307 307 307 309 308 308 307 304 304 305 305 307 307 307 307 309 310 309 309 309 309 309 309 311 310 310 311 309 308 312 315 315 313 311 309 307 306 305 306 307 307 306 306 306 305 305 303 302 303 302 302 303 302 302 302 303 300 297 297 297
305 305 305 305 306 306 305 304 305 304 304 304 305 305 305 305 305 305 305 306 306 306 306 306 306 306 306 307 307 307 307 309 308 306 306 305 305 305 305 307 307 306 307 308 309 308 309 308 309 309 309 311 309 309 311 309 309 311 312 314 311 308 306 305 305 304 305 306 306 306 306 305 305 304 302 302 303 303 303 304 304 303 302 303 301 298 297 297
305 305 305 305 306 305 305 305 305 305 304 304 304 305 305 305 305 305 305 306 306 306 306 306 306 306 306 307 307 307 310 311 307 305 306 305 305 305 306 307 307 307 307 308 308 308 309 309 309 308 309 312 310 309 310 308 309 311 311 311 308 306 306 304 303 303 303 304 305 306 305 304 304 304 302 302 303 303 304 304 305 305 304 303 303 300 297 297
305 305 305 305 305 305 305 305 305 304 304 305 305 305 305 305 305 305 305 305 305 306 306 306 306 306 307 308 307 309 313 313 308 305 305 305 305 305 306 307 307 307 307 308 309 309 310 310 309 309 311 312 312 310 308 306 307 309 308 306 305 305 305 303 302 302 303 303 304 305 304 303 304 303 303 302 302 303 304 305 305 305 304 303 303 301 299 297
306 305 306 305 305 305 305 305 305 305 305 305 305 305 305 305 305 305 305 306 305 306 306 306 306 306 307 307 308 312 314 311 307 305 305 305 305 306 306 306 307 307 308 309 309 309 310 309 309 310 311 311 311 309 307 306 307 309 307 304 303 304 304 303 302 301 302 303 304 304 303 303 303 303 303 303 302 303 304 305 305 304 304 302 302 301 300 298
306 305 305 305 305 305 304 305 305 305 304 305 305 305 305 305 305 305 305 305 306 306 306 306 306 306 306 306 310 312 310 307 305 305 305 305 305 306 306 306 307 308 308 309 309 308 309 309 309 309 311 312 311 308 308 307 308 311 308 304 303 303 303 303 302 301 301 302 303 303 302 302 302 303 303 303 303 304 304 304 304 304 303 302 301 301 301 300
305 305 305 305 305 304 304 305 304 305 305 305 305 306 306 306 306 306 306 306 306 306 306 306 305 306 306 308 313 312 306 305 304 305 304 305 306 305 306 307 307 308 308 308 308 308 309 309 309 308 312 312 310 311 310 309 310 311 308 304 303 303 302 302 301 301 301 301 302 301 301 301 302 302 302 302 303 304 304 303 303 303 303 301 301 301 301 301
305 305 305 305 305 304 304 304 304 305 305 305 305 305 306 305 306 306 306 306 306 306 305 305 306 306 305 309 314 311 306 304 304 304 304 305 306 305 306 307 307 308 308 308 308 309 308 308 308 308 311 309 309 312 310 311 312 309 307 304 303 303 302 302 301 301 301 302 301 301 301 302 302 301 302 303 303 303 303 303 303 303 302 301 301 300 300 300
305 305 305 305 305 304 304 304 304 305 305 305 305 305 305 305 305 306 306 306 306 306 305 306 306 306 308 311 313 310 305 304 304 304 304 304 305 305 306 306 307 308 308 308 307 308 307 308 308 308 311 309 309 310 309 312 311 307 306 305 304 303 302 302 302 302 301 302 302 301 301 302 302 301 303 304 303 303 303 302 302 302 302 301 300 300 300 300
305 305 305 304 305 304 304 304 305 305 305 305 305 305 305 305 305 305 306 306 306 306 305 305 305 306 310 310 310 308 304 303 304 304 305 305 304 305 305 305 306 308 308 308 307 307 307 309 308 310 313 311 309 308 308 309 307 305 305 306 305 303 303 302 302 303 302 302 302 301 301 302 302 302 303 303 303 302 302 302 302 301 301 301 301 301 300 300
305 305 305 305 305 304 304 304 305 305 305 305 305 305 305 305 305 306 306 306 307 306 305 305 306 306 310 309 306 305 303 303 304 304 305 305 304 305 304 305 305 306 307 307 307 306 307 308 308 312 313 311 310 310 309 306 305 305 305 307 308 304 303 303 302 303 302 302 301 301 304 305 302 303 304 303 302 302 301 301 302 301 301 301 301 301 300 300
306 305 305 305 305 304 304 304 305 305 305 305 305 305 305 305 305 306 306 307 306 306 305 306 307 308 311 310 305 303 304 304 304 304 305 305 306 305 304 305 305 305 306 306 307 307 307 307 309 312 312 312 313 311 308 305 304 306 306 308 310 308 306 304 303 303 302 302 301 303 310 310 304 303 304 304 302 301 301 301 302 302 302 301 301 301 300 300
306 306 305 305 305 304 304 305 305 305 305 306 305 305 305 305 306 306 306 306 306 306 306 306 308 310 312 308 304 303 304 304 305 305 305 305 306 306 306 305 305 305 305 305 306 306 307 307 308 311 310 311 311 308 307 305 305 308 311 311 312 314 310 304 303 303 302 302 301 304 310 311 307 305 304 304 302 301 301 302 303 303 303 302 302 301 301 300
306 306 305 305 305 305 305 305 305 305 305 306 305 305 305 306 306 305 306 306 307 306 305 308 310 311 312 307 303 304 304 305 305 304 304 305 305 307 307 306 306 305 304 305 305 305 306 306 308 311 309 307 309 311 312 310 307 310 315 316 314 314 311 305 304 304 303 302 300 305 310 310 307 307 305 304 303 302 302 303 304 304 303 303 302 301 301 301
306 305 305 305 305 304 305 305 305 305 305 305 305 306 305 306 305 305 306 306 306 306 307 312 311 310 312 307 304 305 305 306 305 304 305 304 305 306 306 306 306 306 305 305 304 305 306 306 309 310 308 307 310 314 316 315 312 313 315 316 313 312 312 309 305 303 303 303 302 305 308 308 306 306 305 303 303 302 302 303 304 303 303 303 302 302 302 302
306 305 305 305 304 304 305 305 305 305 305 305 306 306 305 306 306 306 309 308 306 306 307 311 309 310 311 305 304 305 305 305 304 305 305 305 305 305 305 307 307 307 307 306 305 305 306 307 308 310 310 309 311 313 316 318 316 315 315 314 313 312 312 312 308 304 302 305 306 305 306 306 306 306 306 306 304 303 303 303 304 303 303 303 303 302 302 302
305 305 305 305 305 305 305 305 305 306 306 305 306 306 306 307 306 308 311 310 308 308 308 310 310 314 312 305 304 306 305 305 304 305 306 305 306 305 305 306 307 307 307 307 306 305 308 309 309 311 312 311 312 314 315 317 315 315 315 314 314 312 310 312 312 306 304 307 308 307 306 306 306 307 307 308 307 305 304 304 304 303 302 303 303 302 302 302
305 305 305 305 306 305 306 306 306 307 306 306 307 307 309 310 309 309 310 310 313 315 314 313 312 315 313 306 304 305 305 304 304 305 306 306 305 305 306 306 306 307 308 311 309 308 310 312 312 314 316 314 312 312 313 313 312 312 313 312 313 312 309 310 311 306 305 307 308 307 307 307 307 307 307 308 307 306 305 304 304 303 302 303 303 304 304 303
305 305 306 306 307 307 307 307 306 307 307 307 307 309 313 315 315 314 311 308 310 311 312 311 309 309 308 305 305 305 304 304 304 306 306 305 305 306 306 307 308 307 310 313 312 311 311 314 318 316 314 312 308 307 308 308 308 309 311 312 313 312 311 310 309 305 305 307 308 308 308 307 306 306 307 307 306 305 304 304 304 304 303 303 304 306 305 305
305 305 306 306 307 307 307 307 307 307 308 309 310 312 317 317 318 319 314 311 308 306 308 307 305 305 305 305 305 303 303 304 304 306 306 306 306 307 308 308 309 311 313 314 314 313 312 316 317 311 307 307 305 306 306 307 308 309 310 311 311 311 311 310 308 304 304 307 308 307 307 306 306 306 306 306 305 304 304 304 304 304 304 305 305 306 306 306
305 305 305 305 306 307 307 307 307 307 309 313 315 317 317 312 312 311 311 315 312 307 308 307 305 305 305 304 304 303 303 305 305 306 305 306 307 308 310 310 310 313 315 314 314 314 317 317 312 305 304 305 306 306 306 308 310 310 310 310 311 312 311 311 309 305 304 306 308 307 307 306 305 305 306 306 305 305 305 305 305 304 304 304 305 306 306 305
305 305 305 305 305 306 307 306 307 307 308 311 313 314 311 307 305 304 309 316 314 310 311 309 307 306 305 305 304 303 305 306 306 305 304 306 308 309 311 311 311 313 313 314 315 314 317 314 306 304 305 306 306 306 306 308 310 310 310 311 312 312 312 311 310 308 306 307 308 307 307 306 305 306 305 305 305 304 305 305 306 306 306 305 305 306 305 303
305 304 305 305 304 306 306 306 309 308 307 308 308 308 307 307 306 306 313 318 316 313 310 307 306 306 306 304 304 305 306 306 306 305 304 305 307 308 310 311 311 312 314 316 314 314 315 308 303 305 305 305 307 307 307 309 310 311 311 311 312 311 309 309 309 308 307 308 309 308 308 308 308 307 304 303 303 303 303 304 304 306 306 306 306 305 303 303
305 304 305 305 305 306 305 307 312 308 309 313 309 306 307 308 306 306 313 318 316 314 311 308 307 305 305 304 305 306 305 306 305 304 304 303 305 308 311 310 309 313 317 316 313 315 314 305 302 306 305 304 307 308 309 310 309 310 312 310 308 307 307 307 307 307 307 309 310 308 309 311 310 308 305 303 303 303 303 304 304 304 306 307 305 303 302 303
305 304 305 305 306 306 307 312 313 308 314 316 308 305 307 307 306 306 313 317 316 316 315 311 308 306 306 306 306 306 309 308 303 303 303 302 304 308 312 311 309 313 316 313 312 313 309 302 302 307 306 306 308 309 310 310 308 309 309 307 306 305 305 307 307 308 308 308 309 308 308 309 309 308 306 304 304 304 304 305 305 304 305 305 303 302 302 302
305 305 305 305 305 307 310 312 311 313 320 316 307 305 306 306 306 308 315 318 316 317 316 312 309 308 309 308 305 308 316 313 304 302 302 302 305 308 311 312 311 313 312 310 311 311 307 303 304 306 306 308 309 309 309 308 308 309 307 305 305 305 305 307 307 307 307 306 307 308 307 307 308 309 307 306 305 304 304 306 306 304 304 303 302 302 303 302
305 305 305 306 304 306 308 309 313 318 317 309 306 306 306 306 307 311 317 315 313 315 315 313 309 306 307 308 305 308 314 312 308 306 302 301 305 307 311 313 313 312 311 310 310 312 311 309 308 307 307 308 308 306 307 306 307 308 305 303 303 304 305 306 305 305 306 306 307 309 308 308 310 308 306 307 307 305 305 306 305 303 303 302 302 302 302 302
305 305 305 304 306 308 307 306 312 314 309 305 307 306 305 306 309 316 317 311 313 316 314 313 310 308 310 311 309 309 309 308 310 307 303 302 303 306 310 312 312 312 313 312 310 312 312 308 309 309 308 307 304 303 306 307 306 305 303 304 305 304 304 304 304 304 305 307 309 309 307 308 310 308 306 307 307 305 305 304 304 303 302 303 303 302 302 302
304 305 305 304 308 310 308 310 311 308 306 306 306 305 306 310 315 318 314 311 316 317 314 313 314 313 315 313 311 311 310 309 309 308 307 307 304 305 308 309 310 311 313 313 311 313 310 304 305 308 306 304 302 302 305 306 305 304 304 306 307 306 304 303 303 303 306 310 308 306 306 306 308 308 306 306 306 305 305 303 303 303 302 303 303 302 302 301
304 305 305 304 307 307 310 316 311 305 306 305 304 307 312 318 318 314 311 314 317 317 315 315 316 315 314 312 310 312 312 310 310 310 310 310 308 308 310 309 309 311 311 313 313 313 310 306 306 306 304 303 302 303 304 303 303 303 303 305 307 307 304 303 304 304 309 313 306 303 305 306 307 307 305 304 305 305 306 304 303 303 302 303 303 302 302 301
304 305 305 305 305 305 309 312 307 304 306 304 307 314 318 318 314 311 313 316 316 315 315 314 314 314 312 311 310 311 312 311 310 310 309 310 310 310 313 312 310 311 312 311 312 313 312 310 307 305 303 302 304 306 305 303 303 303 304 305 308 310 308 307 308 308 312 311 303 302 305 306 306 306 303 303 303 304 305 304 303 303 302 302 302 302 302 301
304 305 305 305 305 304 306 306 304 305 305 306 313 320 317 312 312 312 312 313 314 313 313 312 313 313 312 312 312 310 310 312 312 310 309 310 311 312 313 311 310 311 311 309 309 310 312 311 307 306 305 302 303 305 306 305 304 304 305 306 308 311 309 309 309 310 312 308 303 302 304 307 307 304 302 302 302 303 304 304 304 303 302 301 301 301 301 300
304 305 304 304 304 305 305 304 305 305 304 310 318 319 313 310 311 312 311 312 313 312 313 313 311 312 312 311 311 308 309 313 311 310 311 311 311 312 311 310 311 309 308 308 308 308 311 313 309 307 307 304 303 303 304 304 304 304 304 304 306 308 308 310 309 310 311 309 305 304 305 309 309 304 302 302 302 303 303 303 304 303 302 302 301 300 300 298
304 304 304 304 304 305 304 304 305 304 307 316 318 315 313 311 309 311 310 311 311 310 313 312 309 313 313 310 308 308 308 310 310 311 313 311 310 310 307 307 308 307 308 310 309 308 310 313 309 304 303 301 302 303 302 303 305 304 302 304 306 306 306 309 309 308 308 308 307 306 307 307 305 303 302 303 303 303 303 303 303 302 301 301 300 299 298 298
306 307 308 307 305 305 304 305 305 305 311 318 316 313 313 310 309 311 312 311 310 310 312 312 311 313 314 311 309 308 308 308 310 310 310 309 310 309 307 306 305 305 306 308 309 309 309 310 307 303 302 299 299 301 301 303 306 304 302 305 305 302 303 306 308 306 306 308 307 307 307 306 303 303 302 302 303 302 302 302 301 300 299 299 299 298 297 297
308 310 311 309 305 304 304 305 305 307 314 318 314 312 311 310 309 310 310 310 309 308 309 311 311 309 310 310 309 307 307 309 310 309 307 309 310 307 307 306 303 302 302 303 308 308 307 308 307 305 305 301 297 299 301 301 302 303 303 304 303 302 302 303 306 307 307 308 307 306 308 306 306 306 303 302 303 302 301 301 299 298 298 297 297 297 296 295
308 310 312 309 304 304 306 306 306 310 316 316 313 312 311 311 310 308 308 309 309 308 309 309 310 309 308 308 308 307 307 308 309 308 307 309 308 307 307 306 302 300 300 302 306 307 306 308 306 303 304 301 298 300 303 301 299 301 302 302 303 306 306 304 305 307 308 308 307 307 308 307 308 307 302 301 302 300 299 299 298 297 297 296 296 296 295 294
309 312 315 310 304 305 305 306 309 314 316 314 315 315 312 312 309 305 305 308 309 308 309 308 308 309 308 308 309 308 307 307 307 307 307 308 309 308 306 305 303 301 300 302 305 305 305 308 307 303 302 301 299 302 306 303 300 300 300 301 302 303 305 306 306 305 307 307 306 307 308 307 306 303 301 301 300 298 298 297 297 297 296 296 296 295 294 294
310 313 316 308 303 306 305 307 314 318 316 314 315 315 312 311 309 304 303 307 308 307 308 309 308 309 309 309 309 307 306 307 306 306 307 307 308 308 304 303 304 303 301 302 303 304 304 306 307 305 303 303 303 303 304 304 303 302 302 303 303 303 303 305 306 305 305 306 306 307 308 306 303 302 302 300 298 297 297 297 297 296 296 296 295 294 293 293
310 313 316 308 303 305 308 313 316 315 314 314 314 314 314 313 310 306 304 305 307 306 305 307 308 308 309 309 308 306 306 307 306 306 307 306 306 308 305 302 303 303 301 302 303 303 304 304 305 305 303 305 306 301 299 301 303 303 304 305 305 305 304 305 306 305 304 305 306 306 306 306 303 302 300 298 297 297 297 296 296 296 295 295 294 293 293 292
311 314 313 306 303 306 312 318 315 311 312 314 312 313 314 312 309 307 305 305 307 306 305 306 307 307 308 308 308 307 306 307 307 307 307 307 307 308 305 301 301 301 301 303 303 301 301 302 302 303 303 303 302 298 297 299 301 302 302 302 303 304 304 305 306 304 303 304 303 303 305 305 302 301 299 297 297 297 296 296 295 294 294 294 293 293 292 292
314 314 310 306 304 307 314 319 316 314 314 311 309 309 309 308 307 308 307 306 307 307 306 307 308 307 307 306 306 306 306 307 308 308 307 307 307 305 302 301 301 301 301 303 304 301 300 302 303 305 305 303 299 297 297 298 299 302 301 300 301 303 304 305 304 302 302 303 302 302 304 303 301 301 299 298 297 296 296 295 294 294 294 293 292 292 291 292
313 313 312 308 304 308 317 319 315 315 313 310 310 310 309 307 307 308 307 306 307 306 306 307 307 306 306 305 304 305 306 306 307 307 305 304 306 303 300 301 301 301 301 304 304 302 303 305 305 305 306 305 303 302 301 300 300 301 301 300 301 304 305 303 300 300 301 302 301 302 304 303 301 300 299 297 296 295 295 294 293 293 293 292 292 291 291 292
312 312 313 309 306 310 317 316 313 312 312 311 312 311 310 309 306 305 306 306 305 304 305 306 305 304 304 305 305 306 306 306 306 306 303 302 305 302 300 301 301 300 301 303 303 301 303 305 303 305 307 307 307 308 306 304 303 301 302 301 300 302 304 301 300 302 302 302 301 302 303 302 300 299 298 296 295 295 294 293 293 292 292 291 291 290 290 291
313 313 313 314 313 312 313 312 311 312 311 311 311 309 310 311 308 304 304 306 305 304 304 304 304 304 304 305 307 307 307 307 306 305 305 304 304 303 301 300 300 300 300 302 302 300 301 303 302 304 306 305 306 306 304 303 302 301 302 303 301 300 300 299 300 302 302 301 301 302 301 300 299 298 297 295 294 294 293 292 292 291 291 290 290 290 290 290
313 314 312 312 315 315 312 311 312 313 311 310 309 308 308 310 309 306 306 306 304 303 305 304 304 306 306 306 307 306 307 308 307 306 305 303 303 303 302 300 300 300 300 301 300 298 300 303 303 303 304 304 303 303 302 301 300 300 301 302 302 300 298 298 300 301 300 301 301 300 299 298 299 297 296 294 294 293 292 291 291 290 290 289 289 289 289 289
312 314 310 308 312 314 313 313 313 312 312 310 308 308 309 309 309 308 308 306 303 303 306 306 307 307 307 307 306 306 307 307 307 308 305 301 300 302 303 301 300 300 300 298 297 296 299 303 304 303 303 302 301 300 300 300 300 300 301 300 301 301 299 299 300 300 299 300 300 299 298 298 298 296 295 294 293 292 291 291 290 290 289 289 288 289 289 288
311 311 308 307 311 310 308 310 311 311 313 311 308 309 309 308 309 308 307 306 305 305 305 307 309 306 305 306 305 305 307 306 308 309 305 301 301 302 303 303 300 299 298 297 296 295 298 303 304 303 302 300 300 301 301 301 300 300 300 301 300 301 300 300 300 299 298 299 299 297 297 297 296 295 294 293 292 291 291 290 290 289 288 288 288 288 287 286
314 313 309 310 310 306 304 306 308 311 313 310 309 310 308 308 309 308 305 305 307 306 305 307 309 306 305 306 304 305 307 307 308 307 303 302 303 302 302 302 300 299 298 297 296 295 298 302 303 301 302 302 301 301 301 300 300 299 299 300 300 299 299 300 299 299 298 298 297 297 297 298 296 294 292 291 291 290 290 290 289 288 288 288 287 286 285 284
306 305 307 313 312 305 305 307 308 311 312 308 309 310 308 308 308 306 306 306 305 307 306 306 307 306 305 305 306 307 306 304 304 304 302 302 302 301 301 300 299 299 299 299 298 296 297 300 301 300 302 303 301 301 302 301 300 299 299 299 299 298 298 298 298 297 297 297 297 297 298 297 295 292 291 290 290 290 289 289 288 287 287 287 285 284 284 284
304 304 305 312 312 305 306 309 309 311 310 306 307 308 307 308 306 305 308 308 305 305 305 305 306 305 304 307 308 305 301 300 300 299 298 298 299 298 299 298 298 299 300 299 299 298 298 299 300 301 302 303 301 302 302 301 302 302 299 297 298 297 296 296 296 296 296 297 297 297 296 295 292 290 290 289 289 289 289 288 287 287 286 285 284 283 283 283
Wind_Speed
8 8 8 7 7 6 6 6 5 4 4 3 3 4 4 2 2 3 6 7 6 5 6 7 9 11 12 11 7 4 4 3 10 19 15 13 19 17 13 11 10 8 6 8 10 11 10 5 2 4 5 3 0 1 1 1 1 1 2 2 3 3 3 3 4 4 2 3 4 4 5 5 3 5 3 2 4 5 5 6 6 6 7 7 7 14 13 15
6 6 6 6 5 5 5 5 5 4 3 3 3 3 3 3 1 2 4 5 5 6 7 8 11 12 14 13 8 4 4 6 7 18 13 16 19 14 9 8 7 7 7 8 10 11 9 7 7 6 5 2 1 0 1 1 2 1 2 2 2 4 3 4 6 5 4 3 4 4 4 4 1 4 4 2 5 6 7 7 7 8 8 9 10 15 15 16
5 5 5 4 3 4 5 5 5 5 4 3 2 2 3 3 2 2 3 5 6 8 10 11 12 12 14 15 9 4 5 7 5 12 14 19 18 12 8 6 5 7 7 6 9 11 8 8 9 6 5 1 1 1 1 1 2 0 1 2 3 2 3 6 7 5 5 4 2 4 3 2 1 3 3 3 6 5 7 7 7 9 8 10 12 16 17 16
5 4 3 2 3 4 5 6 6 6 5 3 2 2 2 3 2 3 5 7 9 10 11 11 12 12 12 14 6 3 2 4 3 9 15 19 18 12 8 6 5 6 7 6 8 10 9 9 8 6 4 1 1 1 1 2 1 1 1 2 3 2 2 5 6 6 5 5 2 4 3 2 1 2 3 3 5 6 6 4 5 7 7 8 9 16 20 17
4 3 2 2 3 4 6 7 7 6 5 4 3 3 2 2 2 3 5 8 9 10 9 10 12 10 8 10 5 5 1 2 3 9 15 18 17 12 8 7 5 6 8 8 9 10 10 8 6 4 4 1 1 1 2 3 1 1 2 3 4 4 2 4 5 4 4 3 1 2 1 2 1 1 4 5 6 6 3 2 1 3 2 1 0 7 17 16
5 3 2 2 3 5 7 8 7 5 5 4 4 4 3 3 2 3 4 6 7 7 8 10 11 7 3 6 4 2 2 1 4 11 15 18 15 11 9 8 6 6 8 9 10 9 8 6 5 3 2 1 3 2 2 3 1 0 2 3 3 4 2 3 3 2 3 2 1 1 2 2 2 5 6 8 10 9 5 0 1 1 3 3 4 2 8 13
6 5 4 3 4 7 9 7 5 5 5 5 6 6 5 4 4 4 4 5 6 7 9 10 10 5 2 2 4 2 3 4 6 11 15 16 13 12 10 9 8 7 8 8 9 7 6 6 3 3 2 1 3 3 3 3 1 1 1 3 2 3 3 3 3 1 1 2 2 2 3 3 6 7 4 8 11 9 8 6 3 3 3 1 3 4 5 9
7 6 4 4 6 9 10 7 5 4 5 6 6 6 5 5 4 4 5 5 6 8 10 9 9 4 3 4 4 1 5 3 7 11 14 15 12 12 10 9 10 7 6 7 7 7 5 6 5 4 2 2 2 2 3 4 2 2 2 3 1 2 3 3 3 2 1 2 1 2 4 6 7 4 5 11 11 8 8 7 6 5 5 4 5 6 6 7
7 5 4 4 6 9 10 8 5 4 4 3 4 5 5 5 4 4 5 7 7 7 9 9 8 3 2 4 4 1 2 2 7 10 12 15 13 12 10 10 11 7 7 8 9 9 4 4 5 4 2 3 2 2 2 2 1 2 1 2 2 4 4 3 4 4 3 3 2 4 7 7 4 3 7 13 10 8 6 6 7 6 6 5 5 6 6 6
5 4 4 5 6 8 9 8 5 3 2 3 4 4 5 7 6 6 7 7 7 7 10 9 6 3 3 5 4 2 2 3 5 9 10 13 14 13 13 13 12 7 6 8 10 10 6 5 5 4 3 2 2 2 2 1 1 1 1 1 1 3 4 4 4 4 3 4 2 5 8 7 1 3 6 6 2 3 3 3 5 4 5 6 5 6 7 8
4 4 4 5 6 8 9 8 6 4 4 4 4 4 5 7 8 8 8 8 7 8 9 9 5 5 6 4 3 1 3 3 4 7 10 10 12 14 14 13 13 9 6 7 9 9 6 6 5 3 1 1 1 1 1 1 1 1 1 2 2 4 4 4 5 3 2 2 2 5 11 9 3 3 9 5 4 5 5 4 5 5 6 6 6 6 6 7
4 3 4 5 6 7 8 8 7 6 5 5 6 6 7 9 8 8 9 8 8 7 9 8 4 6 7 3 4 1 4 3 3 7 9 8 8 10 10 10 11 11 8 6 7 7 7 6 5 2 1 1 1 2 1 2 2 1 2 3 3 6 4 5 5 2 1 0 0 6 9 5 7 8 12 7 5 5 5 5 6 7 6 5 6 5 5 7
2 3 4 5 5 6 7 7 7 7 7 7 7 7 8 8 7 8 9 8 8 7 8 7 2 5 6 2 2 0 3 4 4 8 8 6 8 6 5 7 8 10 9 7 5 5 7 7 5 2 2 2 1 2 1 3 1 1 3 3 2 3 4 5 3 3 2 0 2 3 4 3 7 13 10 5 8 6 4 6 6 6 6 6 5 4 4 6
2 3 5 5 5 6 7 8 8 7 7 8 8 7 8 7 7 9 9 9 8 6 7 6 3 5 3 2 1 1 2 4 5 7 7 6 8 5 2 4 5 5 6 5 4 3 4 6 4 4 2 3 2 2 2 3 1 1 1 1 3 3 2 5 3 3 3 0 2 2 1 5 4 8 8 7 8 7 6 7 6 5 4 4 6 5 4 5
1 3 5 6 5 6 7 9 9 8 7 8 8 6 7 7 7 9 10 10 7 5 7 6 4 5 0 3 2 1 3 2 3 7 7 7 9 5 3 5 4 2 2 2 2 2 1 2 1 1 2 1 2 1 2 3 3 2 0 2 2 1 1 4 3 2 1 1 3 1 2 6 8 2 7 7 7 8 7 6 4 4 4 3 4 6 5 5
2 2 4 5 6 6 8 9 9 9 8 9 8 7 7 7 8 10 12 11 6 4 7 6 5 5 0 2 2 2 2 2 3 7 7 6 8 6 8 9 6 5 3 2 2 2 2 2 1 0 1 1 2 2 3 2 2 2 2 2 2 2 1 1 1 1 0 0 3 3 2 6 7 1 6 7 8 8 6 5 4 3 2 2 2 4 4 3
3 3 4 5 6 7 8 9 10 10 10 9 8 8 7 9 11 11 13 10 6 5 5 6 7 5 0 2 1 1 1 3 5 6 5 6 7 6 9 8 5 5 6 5 4 4 4 2 1 1 1 2 3 1 3 3 0 1 1 3 4 3 3 2 1 1 2 1 3 5 4 9 12 7 6 7 8 8 7 6 2 2 2 2 2 3 3 3
2 3 5 6 7 8 9 9 10 11 11 10 9 9 10 13 12 9 10 8 4 4 4 4 5 2 1 1 0 2 3 3 6 6 4 5 8 7 7 7 6 6 6 6 5 4 2 2 2 1 2 3 2 1 1 2 1 3 3 3 4 4 5 5 2 1 3 3 3 5 6 11 16 12 8 7 6 7 5 3 4 4 3 4 4 4 4 4
2 4 6 7 8 9 9 10 11 13 13 12 10 11 13 14 9 3 8 7 2 1 1 2 3 1 0 1 1 4 5 5 6 4 3 6 8 7 7 8 7 5 5 3 3 3 1 0 2 2 2 2 1 2 2 2 1 3 4 3 5 4 5 7 1 2 1 1 4 7 7 11 16 12 7 7 5 2 3 5 6 4 4 4 5 5 5 5
4 6 7 8 8 9 10 11 12 14 14 11 9 10 9 6 3 1 6 8 3 1 1 2 3 1 0 2 4 8 7 5 4 0 4 9 9 7 5 6 5 4 3 1 1 1 2 2 4 2 1 2 3 3 1 2 1 3 4 3 6 5 6 7 1 2 1 1 5 7 7 12 16 12 8 6 1 6 5 6 5 4 5 5 6 6 6 7
5 7 8 8 8 8 9 10 11 12 11 8 6 5 3 2 1 0 3 3 1 1 1 1 3 1 1 2 5 8 4 4 3 1 6 10 6 4 2 1 4 3 2 1 1 1 0 3 2 1 3 3 4 3 2 1 1 3 3 5 6 5 6 3 3 3 1 1 4 7 8 12 15 12 9 5 4 6 5 7 6 6 6 5 7 7 6 6
6 8 8 8 8 8 9 9 10 10 9 8 6 4 3 3 1 1 1 1 0 1 2 2 2 2 2 1 4 7 3 3 2 2 9 12 4 2 3 2 5 3 0 1 1 1 2 2 1 3 2 3 4 2 1 1 2 3 3 4 5 4 3 2 4 3 3 2 5 7 6 11 16 13 8 2 6 5 5 6 5 6 7 6 7 6 6 7
7 9 9 9 8 7 7 7 8 9 9 8 6 4 3 2 2 2 1 2 0 2 2 1 2 2 1 2 4 6 4 2 0 2 10 12 3 0 3 3 4 4 3 2 1 3 3 1 3 2 1 1 1 2 1 2 3 4 5 4 5 3 2 1 1 0 2 3 6 8 6 10 14 8 1 4 6 6 5 6 5 4 5 7 7 5 8 9
9 10 10 9 8 7 6 6 6 7 9 7 6 5 3 2 2 3 1 1 1 1 1 2 2 3 2 1 4 5 3 2 1 3 10 9 4 2 1 2 3 4 2 2 2 4 3 2 2 1 0 2 2 2 3 4 4 5 6 5 5 2 2 2 2 4 6 4 4 5 5 7 5 4 4 4 5 6 5 5 4 2 4 6 5 7 9 9
10 9 9 9 9 7 6 4 4 6 6 4 4 5 3 3 3 3 1 1 1 1 1 1 1 1 2 2 4 3 2 2 1 4 8 6 3 2 1 1 2 1 2 3 3 5 3 1 1 1 2 2 3 3 4 4 3 4 2 1 2 3 3 3 6 6 5 3 1 1 4 4 1 4 6 4 4 5 5 5 6 4 3 4 5 8 9 8
9 8 8 8 9 10 6 1 3 7 4 1 2 3 3 3 4 3 0 1 1 0 1 0 2 1 2 1 2 2 1 1 2 3 4 3 2 1 1 1 2 1 2 1 3 2 1 1 0 1 2 2 3 5 5 5 2 4 2 4 5 4 3 4 5 3 2 4 3 3 2 3 4 3 5 8 6 6 6 5 7 7 5 5 7 8 7 6
8 8 9 8 9 10 6 2 6 8 2 2 4 2 2 3 3 2 1 1 1 1 1 1 1 2 1 1 2 2 1 1 1 1 2 2 1 1 1 1 1 0 0 1 2 1 2 2 0 1 2 2 3 4 3 4 2 3 3 2 4 2 3 4 3 2 3 5 5 5 4 2 5 4 4 8 8 8 6 6 6 5 5 8 9 8 7 7
8 9 9 9 9 8 6 6 7 4 2 5 5 2 3 5 3 2 1 1 1 1 1 0 0 2 1 0 1 2 1 1 1 0 1 2 2 1 2 3 2 2 1 1 2 2 1 2 3 2 2 3 2 1 2 1 1 1 1 1 1 3 4 4 2 4 4 4 5 4 5 2 4 2 3 5 8 8 5 4 6 7 8 8 8 8 7 7
8 9 9 10 9 6 7 8 5 3 5 6 3 3 5 5 3 1 0 2 1 1 1 0 0 1 1 1 1 1 0 1 1 1 3 3 2 1 2 2 2 3 3 5 5 2 1 1 1 1 2 2 1 2 4 2 1 0 0 1 4 4 3 2 3 4 4 3 4 4 5 2 4 1 2 2 4 5 5 6 7 7 8 7 7 8 7 6
9 9 9 11 9 7 8 7 6 7 7 5 4 6 5 3 1 0 1 2 1 1 1 0 0 2 3 3 1 1 0 0 0 1 2 1 1 2 1 1 1 3 3 4 4 2 2 1 1 0 0 1 2 1 1 3 2 1 2 4 5 3 2 2 4 2 2 3 2 1 2 1 2 1 2 2 2 4 6 5 6 7 7 7 7 6 6 6
10 10 10 10 8 8 6 4 7 10 7 6 8 7 3 0 1 1 2 2 1 2 1 1 1 1 3 4 1 2 2 1 2 3 2 1 0 2 1 1 1 2 2 2 3 1 2 1 1 1 2 1 1 0 1 3 2 1 2 4 3 1 1 0 2 1 1 2 1 1 2 2 2 0 2 2 3 5 7 6 6 7 7 6 6 6 6 6
10 10 11 11 9 8 6 4 8 10 8 10 10 5 1 1 0 1 2 1 0 3 2 1 1 3 4 2 1 2 3 2 2 2 1 2 2 1 2 1 2 2 2 2 2 1 1 1 1 2 1 0 0 1 1 1 0 2 3 3 3 2 1 1 1 1 2 2 2 1 2 2 3 2 5 5 6 6 6 6 6 6 6 6 7 6 6 6
10 10 10 10 10 9 7 7 8 9 9 10 7 2 1 2 1 0 2 2 1 2 1 1 2 3 3 2 1 2 1 1 2 1 0 1 1 1 3 3 3 1 1 3 5 3 2 2 1 1 0 1 1 1 1 1 1 2 2 1 2 2 2 3 3 3 3 1 2 1 1 3 4 2 6 7 6 6 6 6 6 7 7 7 6 6 6 6
9 10 9 9 9 9 8 8 8 9 10 8 3 2 2 2 1 0 1 2 1 2 1 1 4 3 1 1 1 2 1 1 1 2 1 1 0 1 3 4 4 2 2 3 3 2 2 2 1 1 0 1 1 1 1 1 2 2 1 2 0 1 2 3 2 2 4 3 2 1 0 3 3 2 6 7 7 6 5 5 6 8 7 6 6 7 7 7
8 9 8 8 9 9 9 9 8 9 9 6 2 1 2 1 2 2 1 1 1 3 3 0 2 3 1 1 0 1 2 1 1 2 2 2 1 2 2 4 5 4 2 2 2 2 2 3 0 1 1 1 1 1 2 0 2 1 1 2 1 1 1 2 3 4 5 5 3 2 2 3 1 4 6 7 6 6 6 6 8 8 7 7 7 6 7 7
7 8 7 7 9 10 9 9 8 8 6 4 2 1 1 1 1 1 1 2 1 4 6 3 1 2 2 0 1 1 1 2 2 3 2 1 3 4 3 2 4 4 3 1 2 2 2 3 1 2 1 1 1 1 0 1 1 0 1 1 2 2 1 1 4 4 3 4 3 3 3 1 3 3 5 5 5 6 6 7 8 8 8 7 5 5 7 8
6 6 4 5 9 10 9 8 7 5 3 2 1 1 0 1 1 1 2 2 0 0 4 4 1 1 3 2 1 2 1 2 2 2 2 0 2 2 2 2 2 3 4 2 1 1 2 4 2 2 1 1 1 3 2 0 1 0 1 3 3 1 2 1 2 2 2 3 3 3 3 3 1 2 3 3 5 5 6 8 8 7 7 6 6 7 9 10
5 5 2 5 10 10 7 7 6 4 2 1 1 0 1 1 1 2 2 2 1 0 2 2 0 1 3 3 2 3 2 3 4 3 3 2 1 2 1 2 2 2 3 2 1 1 3 4 2 1 0 1 1 2 2 1 1 1 3 3 0 1 0 1 1 1 2 4 3 3 4 5 3 2 3 2 5 6 7 8 7 8 8 8 9 10 11 12
5 3 1 5 9 8 6 6 5 3 2 1 1 1 1 1 1 2 2 1 1 1 1 1 1 1 1 2 3 2 2 2 4 3 2 2 2 2 2 0 1 1 2 2 1 2 3 1 2 2 0 2 1 1 1 0 1 1 2 2 1 1 2 1 1 0 2 3 4 3 3 2 1 2 3 4 7 9 8 8 8 10 11 10 10 9 10 12
3 2 0 6 9 6 5 6 4 2 1 1 2 1 0 1 2 2 1 2 0 1 2 2 2 2 2 2 2 2 0 1 2 2 1 2 2 3 3 3 2 2 2 2 1 2 2 2 3 2 1 0 1 2 1 1 2 1 1 1 0 2 1 1 1 2 2 4 3 4 2 1 1 1 5 9 9 9 9 9 8 9 9 9 8 8 10 11
2 1 1 8 10 6 5 4 2 1 1 2 2 2 0 0 1 1 1 2 1 1 1 2 2 1 3 3 2 1 2 3 2 2 2 2 3 2 2 2 3 3 2 2 1 1 1 2 4 3 4 3 2 2 1 1 1 1 1 2 2 2 1 2 3 1 1 2 2 2 4 2 2 2 8 9 8 8 9 9 7 7 8 8 7 9 11 11
2 1 3 9 10 6 4 2 1 1 2 1 1 1 1 1 0 1 1 0 1 0 1 1 1 1 1 2 2 2 2 3 3 1 1 1 2 1 0 2 3 3 2 1 1 1 0 2 4 5 6 4 1 1 2 3 3 1 1 1 2 1 2 2 4 1 1 2 1 1 4 4 1 5 9 8 8 9 9 8 8 8 8 8 9 10 11 10
1 1 3 9 9 6 3 2 2 2 2 0 1 1 1 1 1 0 1 0 0 0 1 0 1 1 1 2 3 3 3 2 3 1 2 2 0 2 2 2 3 2 1 1 1 0 0 2 2 5 6 1 2 1 1 3 3 2 1 0 1 1 1 2 2 0 0 2 2 2 4 3 2 5 8 7 8 9 8 8 9 8 7 8 9 10 11 9
2 1 2 8 10 5 2 2 2 2 2 1 1 1 1 1 1 1 0 1 1 1 2 1 2 2 2 2 1 3 2 1 1 1 1 2 1 3 3 2 1 1 0 0 1 1 1 1 1 3 5 3 2 1 2 2 2 1 0 2 3 3 4 3 1 1 1 5 5 4 3 2 1 6 11 11 10 9 8 8 8 7 7 8 9 10 11 10
2 1 1 5 9 6 2 1 1 2 1 1 1 1 0 1 2 2 1 2 1 1 2 1 0 1 1 0 1 3 3 3 2 1 1 2 1 2 2 2 1 1 2 2 3 2 1 2 1 2 4 4 4 2 1 2 2 2 0 1 2 3 4 2 1 1 2 3 3 4 4 3 6 11 13 13 12 11 11 10 9 8 9 10 10 10 11 9
1 1 1 2 6 6 2 0 2 2 1 1 1 1 2 1 1 0 1 1 2 1 1 1 1 1 2 1 2 4 4 5 5 3 2 2 1 1 1 1 1 1 2 3 4 2 1 3 3 5 6 6 6 5 3 3 4 6 6 3 2 3 4 3 1 1 2 3 3 4 4 8 11 11 10 9 10 10 10 10 10 9 10 11 11 12 11 9
0 1 1 1 2 3 2 2 4 2 1 1 1 1 3 2 1 0 1 0 1 1 1 1 1 1 2 1 2 4 2 3 5 5 3 3 2 1 1 0 1 1 2 2 3 1 1 4 4 5 9 8 8 9 9 7 7 9 9 5 4 5 4 4 3 3 3 3 4 4 8 12 12 9 8 8 9 9 9 10 10 10 11 11 12 12 11 10
1 1 0 0 0 2 2 2 4 2 1 1 1 2 2 3 1 1 1 0 1 1 1 1 1 3 4 2 2 2 3 3 4 3 1 1 2 2 1 1 0 2 2 1 2 1 1 4 1 1 7 8 8 11 11 9 8 7 7 7 3 6 7 5 5 5 3 3 6 7 10 12 10 8 7 7 9 9 9 10 10 10 11 13 13 12 11 12
2 1 0 1 1 2 0 2 3 2 2 2 2 2 2 3 2 0 1 1 1 2 2 2 1 0 2 2 1 2 4 4 3 1 1 1 3 3 2 1 0 3 3 2 1 1 0 2 0 1 5 10 11 11 10 7 6 5 6 7 2 4 7 7 5 5 4 4 6 9 11 11 6 5 6 8 9 9 9 9 10 12 14 15 13 12 13 14
1 1 1 0 1 2 1 2 2 2 0 0 1 1 1 2 1 1 1 1 1 1 1 2 3 4 4 3 2 4 3 4 4 3 2 2 3 2 1 1 1 2 3 1 0 1 1 1 1 0 4 9 9 6 4 5 6 6 6 5 1 2 2 3 2 3 4 6 7 9 11 9 3 6 8 9 9 10 11 11 12 13 14 13 12 13 14 15
1 1 1 0 1 1 1 1 2 1 1 1 2 1 2 1 1 2 1 1 2 2 2 3 6 5 4 5 5 3 2 4 4 3 2 2 3 1 1 1 3 1 1 0 0 0 1 1 4 3 4 6 4 2 4 6 7 4 5 5 1 2 3 3 3 5 6 7 9 9 7 5 4 8 9 9 10 12 12 13 13 14 12 11 12 14 16 15
1 1 1 1 0 0 1 1 1 1 1 1 1 1 1 1 2 3 2 2 3 3 3 4 5 4 5 5 3 2 2 3 4 4 3 3 4 4 3 1 1 1 2 0 0 1 1 2 4 3 4 4 3 3 6 7 5 1 4 7 5 5 6 6 6 7 7 6 6 6 4 5 7 9 10 11 12 12 11 12 14 13 11 11 13 16 16 15
Wind_Direction
114 110 104 100 93 82 73 65 61 56 51 46 38 34 38 46 52 32 13 19 40 38 35 31 17 8 5 3 349 334 322 319 54 53 51 10 344 339 328 323 332 340 342 343 339 323 319 309 313 325 284 240 104 41 174 25 6 276 264 255 300 16 56 5 19 30 320 116 133 162 169 221 169 159 158 116 228 232 235 222 222 216 217 230 148 144 149 149
118 115 107 104 88 66 57 54 47 39 34 32 29 34 42 56 49 340 5 17 30 19 9 359 352 353 353 354 338 295 295 284 47 55 33 352 351 349 340 341 344 347 343 347 350 341 345 350 345 323 282 226 99 90 182 5 344 270 297 306 13 35 55 21 34 40 356 60 115 148 174 237 145 142 150 194 229 216 232 232 224 225 221 211 161 152 160 162
119 116 111 99 67 43 42 36 29 21 18 24 37 50 54 61 36 319 322 322 329 333 334 335 336 342 346 346 327 251 261 280 24 36 358 351 360 0 357 353 351 355 349 350 340 330 336 326 317 315 292 263 93 241 216 0 334 318 341 356 56 64 80 47 42 51 17 22 110 136 141 239 148 119 144 220 261 248 241 234 218 220 219 212 182 165 168 172
123 122 114 78 41 36 34 23 17 17 22 35 54 72 76 55 23 320 313 313 313 317 323 331 331 332 343 349 350 159 232 286 31 356 344 358 3 4 5 355 359 356 344 335 317 306 305 301 299 306 291 267 119 190 1 26 337 357 14 36 37 359 62 58 47 47 19 3 24 117 125 253 170 130 174 232 271 258 250 246 227 234 224 212 198 176 173 178
131 130 110 56 43 33 22 12 10 23 34 41 52 72 76 35 0 316 313 309 310 316 326 338 335 328 343 2 45 108 254 267 31 344 352 5 4 10 10 2 350 343 346 331 314 298 286 282 276 279 267 253 78 142 22 18 19 7 33 62 30 357 49 81 65 38 3 348 0 121 157 291 53 186 214 233 249 246 258 54 25 302 335 57 310 171 169 179
131 127 107 75 49 23 9 2 8 29 36 40 51 59 60 39 10 336 323 320 327 334 337 339 336 327 337 3 15 21 283 150 13 348 2 8 9 17 13 9 356 352 352 329 320 310 298 288 255 263 275 52 31 45 36 5 49 67 60 77 39 19 57 91 86 37 355 330 270 108 325 333 304 266 238 229 235 244 260 336 101 48 45 32 354 323 174 178
123 120 106 75 36 14 7 5 18 35 46 63 64 59 58 54 43 29 11 353 347 340 337 335 336 328 222 318 319 325 81 78 1 352 9 12 16 21 18 21 18 10 353 339 338 333 331 324 313 332 325 72 33 39 21 329 21 72 103 104 54 56 87 92 95 98 10 306 312 356 317 289 263 271 274 250 243 246 256 262 246 167 143 251 271 269 225 187
115 112 91 55 24 13 12 15 34 47 69 77 62 53 44 37 36 36 24 359 341 334 341 342 343 337 217 252 270 126 83 50 350 357 10 16 24 22 21 19 10 5 1 7 354 337 326 338 3 346 319 88 12 39 23 332 28 41 94 123 108 109 119 116 132 159 201 251 277 298 270 255 258 293 296 265 257 250 246 252 248 199 177 224 237 234 239 210
101 93 69 41 18 14 15 19 32 46 68 61 40 42 24 10 358 354 356 352 348 340 347 348 347 358 222 254 262 211 86 33 352 354 6 21 29 30 32 18 6 11 27 24 7 0 352 359 23 357 32 82 356 49 27 337 45 15 83 143 174 154 145 146 179 183 206 225 187 246 260 255 264 7 283 261 256 249 234 233 234 219 201 210 229 228 228 226
86 69 51 31 15 16 16 17 23 22 21 9 10 18 8 360 341 327 328 337 346 337 342 342 338 349 261 259 271 253 91 54 354 349 1 20 30 38 36 21 11 14 30 31 22 19 14 8 11 349 27 84 51 59 305 303 123 264 147 235 211 157 161 177 218 190 205 242 205 257 271 262 196 93 262 255 182 175 176 212 218 222 224 216 221 221 215 222
74 53 33 22 14 17 18 15 14 3 342 331 332 334 345 348 337 330 325 328 334 330 340 335 307 304 291 289 318 254 87 22 334 356 360 7 27 35 28 20 19 16 22 47 35 18 7 0 348 330 357 61 80 97 337 72 221 242 189 266 219 186 179 188 227 199 210 242 184 274 279 261 177 159 244 225 129 147 163 201 206 213 226 223 223 215 208 212
59 42 16 13 8 11 17 12 5 357 342 324 316 315 323 330 330 331 329 330 330 329 343 335 302 303 305 27 46 74 80 17 335 6 357 344 360 18 21 22 33 32 34 58 43 20 21 355 325 341 32 313 165 114 111 166 245 276 228 269 212 195 195 196 207 165 186 94 46 291 294 258 182 215 245 214 158 157 178 214 215 217 215 213 219 205 201 204
29 19 3 4 0 1 7 3 356 352 344 329 320 315 316 323 327 330 331 334 332 332 342 341 325 302 305 63 73 108 62 25 10 3 351 340 326 330 8 20 36 44 49 67 55 28 28 4 347 66 25 326 123 105 163 187 238 256 225 269 243 210 193 187 177 152 181 126 327 313 325 296 203 217 234 171 155 163 188 221 222 224 212 198 194 185 197 197
17 9 356 351 350 349 351 350 345 343 340 334 331 326 324 326 332 336 332 328 329 328 334 342 331 299 308 90 161 205 31 15 27 354 339 358 337 303 294 1 19 38 49 64 57 45 39 23 43 101 45 4 97 131 188 178 213 215 156 270 244 250 183 163 158 183 191 171 289 325 270 288 282 221 205 151 158 173 195 224 230 240 232 191 168 170 197 196
23 17 356 340 337 338 340 340 336 332 331 331 332 332 332 327 331 340 335 324 320 323 327 330 319 299 94 116 202 158 34 17 34 345 337 0 350 331 326 331 325 328 15 37 30 46 12 333 353 115 74 47 125 174 230 187 203 210 74 299 244 262 186 165 170 194 185 150 202 225 247 279 314 266 170 156 174 189 207 238 256 262 261 230 167 160 182 201
330 5 347 329 330 334 332 333 331 326 320 323 327 324 322 321 322 330 332 321 295 298 321 322 318 308 277 122 170 148 51 6 353 338 334 346 338 327 323 310 276 262 262 252 287 293 267 274 307 331 108 210 200 237 275 222 201 212 210 287 308 312 283 195 208 201 297 322 189 196 250 282 299 112 153 180 193 197 219 244 260 271 259 246 157 145 160 182
336 348 334 328 332 332 326 324 325 321 312 311 316 314 313 316 317 322 331 322 291 278 293 310 321 316 339 111 153 168 19 348 339 331 321 330 328 316 313 303 276 268 247 229 250 246 233 203 123 266 212 240 246 253 317 322 300 270 270 304 297 304 326 290 246 191 198 185 206 210 225 265 271 267 249 230 199 196 218 229 226 48 88 138 120 124 139 155
344 345 338 338 338 333 325 321 324 324 316 309 306 308 308 308 308 322 340 329 301 275 260 303 324 308 115 111 204 3 355 321 321 330 325 322 321 304 293 290 293 298 273 238 220 213 227 186 153 288 239 220 254 90 6 295 250 284 305 309 302 319 311 282 238 190 205 182 235 256 249 264 273 276 275 268 234 210 210 180 97 77 108 136 128 137 148 144
357 354 348 346 342 334 329 325 328 325 317 308 303 309 305 299 290 314 12 10 4 260 242 332 336 240 204 43 14 332 315 302 306 326 338 329 325 303 273 267 273 282 286 271 195 193 323 260 200 278 276 183 90 83 184 264 270 279 292 276 282 292 277 276 241 136 210 222 259 263 258 272 281 284 288 287 273 166 102 89 93 113 143 137 130 135 128 107
11 5 357 351 342 336 335 332 329 326 323 316 308 311 305 297 261 188 29 32 51 45 248 334 336 272 281 30 354 327 305 283 279 270 357 333 327 311 273 245 250 251 261 308 169 176 19 293 238 245 350 104 86 56 27 347 349 291 293 262 263 267 267 276 243 128 81 315 257 258 269 278 280 284 296 295 84 101 109 116 127 147 137 127 122 111 99 97
13 6 359 351 342 340 343 345 344 343 351 355 333 323 337 2 342 293 13 26 64 3 278 323 332 298 51 12 350 348 320 244 235 127 5 340 313 294 325 225 260 252 190 134 36 61 104 255 247 75 39 61 80 55 36 5 284 274 264 265 269 262 269 294 106 148 112 52 270 273 282 279 278 286 295 278 133 122 135 135 143 144 127 116 107 100 98 99
10 2 357 351 346 344 348 2 9 10 19 25 6 4 52 46 25 90 344 293 76 313 265 294 282 220 98 48 355 354 308 241 208 111 5 348 307 249 0 334 277 281 146 227 239 304 258 214 121 74 62 70 81 68 16 261 254 250 241 263 269 255 280 12 96 149 138 109 272 286 298 284 281 285 286 240 123 107 98 104 115 124 121 111 101 98 94 78
358 355 354 351 346 340 344 2 11 12 22 29 27 34 54 54 78 74 340 277 280 277 265 325 297 286 107 131 359 342 300 307 305 69 8 349 325 29 338 317 300 309 309 277 270 309 289 154 91 45 86 116 121 135 196 253 238 230 224 239 263 297 353 297 115 108 225 226 267 295 302 282 281 277 302 70 93 95 86 82 66 73 96 99 98 92 82 73
348 349 354 353 347 334 332 349 352 359 13 27 45 54 52 35 39 34 345 265 251 264 313 349 305 326 0 312 337 331 316 346 308 13 10 353 343 353 304 347 330 296 305 21 0 280 261 94 61 0 206 261 260 178 204 245 258 232 217 229 259 327 27 255 317 329 291 268 275 308 299 273 269 186 138 77 91 107 103 106 96 69 80 89 89 82 75 72
346 348 0 2 357 344 330 335 339 338 351 16 42 43 37 18 13 23 356 275 255 185 315 312 214 344 357 304 309 337 347 349 7 9 11 8 351 329 330 13 294 280 49 29 309 267 243 70 327 209 200 248 247 238 220 218 269 272 242 327 353 35 28 315 330 334 310 298 247 346 315 287 251 170 158 124 130 134 131 139 135 143 141 116 93 81 75 72
351 355 7 9 8 3 347 321 339 335 336 22 20 17 21 10 12 33 11 272 270 224 325 134 184 322 5 331 314 7 352 334 61 20 358 13 346 290 330 243 212 25 27 323 278 271 169 129 297 243 239 237 233 264 242 188 241 293 291 12 32 37 3 303 319 337 293 295 255 180 241 277 312 291 166 147 152 142 147 163 149 157 161 120 86 77 73 70
357 0 6 9 8 7 5 346 341 343 334 330 334 325 338 350 357 2 293 257 275 298 335 104 204 293 352 24 330 317 295 284 77 32 342 2 352 227 257 282 216 196 270 332 303 245 130 118 221 261 245 238 236 265 243 159 159 264 252 12 23 349 295 280 305 272 247 298 279 204 183 251 295 296 157 148 148 143 164 177 151 134 105 85 76 73 71 66
359 358 2 3 357 0 3 340 336 347 323 323 323 285 312 334 330 318 304 283 276 300 348 101 238 296 266 179 294 287 309 325 313 270 216 293 318 192 232 276 293 285 198 165 267 264 109 152 198 194 204 237 236 332 358 112 148 247 213 50 330 267 272 281 287 261 261 307 290 212 160 213 270 254 149 145 137 138 153 128 92 72 68 72 71 68 64 62
356 356 357 354 348 349 346 337 340 350 327 327 326 294 309 316 308 311 243 278 279 58 351 243 178 322 278 229 208 213 286 336 318 217 187 230 274 198 239 291 308 300 251 205 234 274 45 144 214 180 189 228 79 54 4 0 104 270 238 241 253 239 242 254 239 258 269 271 270 218 170 226 279 248 151 131 104 110 110 81 72 71 66 64 66 67 64 64
357 356 354 351 352 346 332 332 348 348 337 338 326 310 309 297 294 19 264 272 22 55 275 254 301 294 322 340 355 179 210 128 1 257 205 182 213 196 220 357 10 279 258 223 243 246 115 81 305 338 152 8 35 64 36 37 49 320 289 271 262 228 189 209 221 241 278 257 264 199 177 262 305 342 61 78 72 104 112 85 67 68 61 58 64 70 67 63
358 357 356 357 359 350 337 332 342 344 343 335 318 309 309 230 192 344 281 237 64 353 290 36 352 312 3 19 357 321 343 351 342 320 307 1 246 226 252 12 33 302 275 240 251 216 115 150 239 30 358 354 18 123 108 49 34 344 290 289 300 281 132 153 222 180 196 259 290 10 335 299 226 218 73 101 79 85 98 84 70 64 57 61 66 71 70 64
357 356 360 2 1 359 6 356 340 344 343 331 319 299 294 334 335 0 324 280 321 345 353 61 358 352 6 12 248 328 348 311 332 0 351 334 309 305 325 347 26 345 317 352 320 270 188 250 115 75 341 309 231 243 58 37 224 237 270 307 332 321 286 266 245 221 223 214 184 75 13 277 235 150 130 125 90 84 93 93 95 81 63 58 57 60 63 60
355 357 360 359 358 4 10 355 342 344 339 330 317 279 315 342 342 318 332 342 323 315 325 234 291 325 342 328 302 343 329 253 335 9 196 322 290 355 17 11 16 324 264 343 332 317 315 316 27 96 40 8 307 291 27 25 228 239 262 10 354 327 311 289 275 267 271 225 185 167 57 264 263 128 127 120 104 107 105 102 108 94 80 71 63 55 49 47
352 356 356 354 357 2 0 351 345 344 339 329 311 325 355 345 349 101 357 6 344 270 263 266 310 312 311 11 355 354 329 253 317 325 252 196 270 354 38 22 18 358 273 303 322 328 308 283 306 21 270 297 335 72 137 265 284 251 208 86 123 255 264 268 293 297 286 301 274 213 204 277 269 149 127 113 110 116 102 92 89 85 81 72 60 50 41 33
348 352 352 349 353 356 354 350 347 346 342 331 312 334 332 324 2 33 357 338 348 321 305 238 349 318 270 79 1 16 49 243 303 330 265 236 348 21 47 29 22 16 335 315 343 351 279 258 328 38 264 264 50 105 146 2 306 262 64 65 179 218 259 273 299 285 275 292 286 189 237 285 79 121 130 122 112 101 83 70 70 69 63 53 42 37 34 23
344 348 350 349 350 351 350 349 349 349 345 340 346 327 323 37 8 19 342 294 322 328 313 313 47 327 304 57 302 319 104 222 309 347 289 198 48 38 56 46 5 12 31 358 326 352 320 275 194 145 312 11 43 315 321 72 319 281 59 315 231 191 153 292 291 281 268 279 252 186 225 245 98 124 155 130 88 80 74 61 66 62 52 50 42 34 34 19
339 333 330 345 349 347 345 348 350 345 333 338 353 306 19 102 289 337 2 330 48 90 312 320 59 11 340 354 343 355 346 257 317 339 292 352 48 13 48 72 342 357 39 29 318 52 345 283 238 128 29 304 270 305 297 316 353 38 206 287 287 186 109 97 300 309 299 268 240 188 235 245 203 223 185 102 46 61 69 55 56 51 40 41 36 31 24 12
328 309 303 353 349 345 345 346 342 329 304 297 253 210 45 31 322 6 10 329 299 212 305 312 305 80 19 343 331 359 0 340 348 339 311 318 354 341 23 62 13 5 6 357 1 21 338 295 284 29 65 185 179 307 294 313 9 183 242 283 331 102 316 192 225 302 282 274 269 241 250 264 260 192 150 49 27 49 55 47 42 31 25 24 26 22 12 3
321 288 265 2 346 342 346 339 329 312 282 301 325 12 55 45 57 45 2 322 289 317 331 338 341 40 33 331 320 339 17 356 336 333 339 349 358 9 20 1 31 31 355 2 19 331 336 278 272 303 224 136 125 219 222 196 179 200 278 310 77 148 204 190 204 243 250 271 284 267 247 277 293 134 107 43 45 55 43 34 30 21 20 22 19 12 5 358
324 264 108 5 354 346 334 328 327 309 281 19 28 24 81 86 92 90 3 349 336 336 0 0 345 338 331 340 352 358 1 267 291 292 305 353 12 25 27 7 351 353 344 353 326 319 322 242 264 311 332 46 180 209 185 144 157 149 203 196 163 223 188 25 283 195 210 258 276 290 282 193 201 133 74 54 54 58 43 32 26 17 17 20 15 8 2 349
317 231 357 357 356 346 325 330 6 6 0 56 69 56 27 218 95 93 48 7 349 108 57 349 321 315 322 337 4 24 323 287 290 272 273 2 36 29 34 7 336 332 325 325 301 305 308 257 278 299 283 275 242 223 357 0 209 121 194 198 184 193 127 345 289 212 135 256 248 284 279 248 217 70 66 66 62 56 47 38 24 13 11 12 12 10 357 340
298 264 351 354 353 345 341 9 22 3 35 49 72 56 13 260 20 72 135 336 289 111 98 246 263 274 321 351 357 3 341 295 298 312 289 23 45 5 327 318 311 300 283 293 198 190 224 258 274 273 262 269 289 211 5 339 318 358 339 311 45 78 133 212 263 308 22 274 299 270 269 272 221 78 69 75 75 57 44 32 18 6 6 7 8 4 349 336
331 335 1 2 356 346 6 44 358 15 68 116 205 114 10 343 38 48 196 167 224 255 287 238 72 19 3 32 356 349 12 300 279 335 0 2 32 213 252 303 304 270 242 253 179 120 280 228 244 267 263 266 70 257 322 0 357 0 260 151 66 64 108 159 228 90 134 251 264 258 263 254 164 85 59 64 72 56 36 26 14 359 3 7 1 353 340 333
355 337 354 5 3 0 46 70 10 34 84 198 206 90 43 34 37 12 64 49 23 323 315 341 64 23 9 45 323 310 13 357 308 64 27 317 255 203 238 285 318 341 32 2 0 19 318 256 339 316 298 315 17 344 353 7 3 347 331 70 81 93 84 87 200 90 213 226 212 226 253 233 248 17 26 34 40 32 21 19 11 1 6 2 353 346 335 327
330 325 253 8 20 33 86 135 357 35 87 90 70 59 9 49 38 9 14 34 13 348 344 338 52 337 327 72 232 270 248 223 256 96 173 265 246 177 217 256 304 354 33 5 335 333 284 277 306 300 288 295 304 321 14 333 321 317 321 71 83 113 118 133 313 78 232 248 214 230 262 297 334 359 17 21 13 7 4 6 6 7 4 354 346 338 327 321
338 26 313 337 23 44 83 160 0 26 72 36 54 31 338 357 96 28 319 18 37 358 286 231 199 211 243 234 256 272 237 198 214 247 259 276 285 137 164 259 307 31 41 339 299 288 301 282 256 243 248 263 280 292 325 341 312 288 286 275 184 140 128 127 76 199 249 318 291 255 308 329 332 352 14 12 3 358 354 357 2 1 355 348 338 327 323 333
35 355 346 321 0 35 64 32 11 27 96 6 59 69 0 352 107 101 309 79 67 332 245 220 239 227 233 273 291 282 261 196 217 249 273 271 288 31 115 236 283 126 90 291 255 222 304 275 251 245 254 264 284 296 308 315 291 279 289 283 179 143 127 147 191 253 326 337 280 310 353 331 322 347 8 360 358 354 351 358 359 352 347 339 326 321 333 356
32 256 305 2 17 32 37 6 357 16 54 22 60 88 16 0 36 5 315 134 179 210 195 216 233 229 243 274 311 299 303 288 248 251 313 302 324 346 276 238 179 152 146 227 222 113 294 271 262 248 271 283 289 283 280 278 273 270 278 277 221 153 150 170 221 265 306 289 276 323 339 315 314 348 360 355 357 354 354 355 350 346 338 326 322 332 355 2
61 78 11 302 80 81 90 285 310 340 31 44 71 75 18 9 24 263 225 216 221 197 201 252 211 178 298 300 306 280 303 321 304 298 28 334 307 301 276 310 48 199 213 223 174 98 278 261 224 174 279 288 281 271 265 260 266 267 258 265 258 157 172 191 227 263 289 293 298 319 315 301 316 7 359 357 358 353 350 347 346 343 331 325 337 356 0 351
64 83 61 270 93 92 186 249 281 300 316 46 48 23 333 2 20 274 215 221 267 197 161 300 339 357 323 280 248 264 309 357 317 301 3 336 307 302 265 334 21 219 228 216 123 81 118 257 325 248 276 289 283 271 263 242 240 256 269 267 203 141 226 233 256 334 339 318 307 310 302 294 337 25 4 355 354 349 346 347 346 337 329 338 358 359 349 346
48 74 84 104 90 66 285 248 254 306 19 14 353 324 299 7 22 311 293 39 346 358 22 340 342 339 298 252 241 263 351 9 315 300 332 293 290 322 285 0 28 346 253 148 72 145 152 285 320 329 293 292 285 231 250 257 241 248 326 339 26 64 356 346 6 357 338 316 307 308 303 299 347 8 355 348 349 346 345 346 337 328 337 0 3 350 346 353
84 54 38 36 90 286 317 297 290 27 59 291 335 334 287 6 19 345 344 34 30 31 27 346 335 323 296 275 254 268 324 310 295 303 313 284 278 287 284 299 47 292 266 281 142 153 104 309 318 324 294 293 309 292 288 294 283 273 10 357 6 42 27 7 357 342 329 319 309 303 307 327 350 355 344 342 347 345 346 341 327 327 351 4 355 351 353 355